Hobart, Australia

9:04 PM AEDT on February 22, 2018 (GMT +1100)
Hobart

Weather History for YMHB - June, 2013

Change the Weather History Date:

Monday, June 17, 2013

  Actual Average Record
Temperature  
Mean Temperature 50 °F -  
Max Temperature 53 °F 54 °F 63 °F (2017)
Min Temperature 47 °F 39 °F 32 °F (2008)
Degree Days  
Heating Degree Days 15    
Moisture  
Dew Point 45 °F    
Average Humidity 83    
Maximum Humidity 94    
Minimum Humidity 64    
Precipitation  
Precipitation 0.02 in 0.05 in - ()
Sea Level Pressure  
Sea Level Pressure 30.07 in    
Wind  
Wind Speed 10 mph ()    
Max Wind Speed 17 mph    
Max Gust Speed -    
Visibility 6.3 miles    
Events Rain    
Averages and records for this station are not official NWS values.
T = Trace of Precipitation, MM = Missing Value Source: Averaged Metar Reports

Daily Weather History Graph

Daily Weather History Graph

Search for Another Location

Airport or City:

Trip Planner

Search our weather history database for the weather conditions in past years. The results will help you decide how hot, cold, wet, or windy it might be!

Date:

Astronomy

Jun. 17, 2013 Rise Set
Actual Time 7:40 AM AEST 4:41 PM AEST
Civil Twilight 7:07 AM AEST 5:14 PM AEST
Nautical Twilight 6:31 AM AEST 5:49 PM AEST
Astronomical Twilight 5:57 AM AEST 6:24 PM AEST
Moon 12:11 PM AEST (6/17) 12:05 AM AEST (6/17)
Length of Visible Light 10h 06m
Length of Day
9h 01m
First Quarter, 54% of the Moon is Illuminated
Jun 17
First Quarter
Jun 23
Full
Jun 30
Last Quarter
Jul 8
New
Jul 16
First Quarter

Hourly Weather History & Observations

Time (AEST) Temp. Dew Point Humidity Pressure Visibility Wind Dir Wind Speed Gust Speed Precip Events Conditions
12:00 AM 48 °F 45 °F 85% 30.14 in 4 mi South 13.8 mph - - Rain Light Rain Showers
12:00 AM 48.2 °F 44.6 °F 87% 30.12 in 4.3 mi South 13.8 mph - N/A Rain Light Rain Showers
12:30 AM 48.2 °F 44.6 °F 87% 30.12 in 6.2 mi South 12.7 mph - N/A   Mostly Cloudy
12:38 AM 48.2 °F 46.4 °F 93% 30.12 in 3.7 mi South 15.0 mph - N/A Rain Light Rain Showers
1:00 AM 48 °F 45 °F 87% 30.13 in - SSW 10.4 mph - -  
1:00 AM 48.2 °F 44.6 °F 87% 30.12 in 5.0 mi SSW 10.4 mph - N/A Rain Light Rain Showers
1:30 AM 48.2 °F 44.6 °F 87% 30.09 in 4.3 mi South 10.4 mph - N/A Rain Light Rain Showers
2:00 AM 48.2 °F 44.6 °F 87% 30.09 in 4.3 mi South 10.4 mph - N/A Rain Light Rain
2:30 AM 48.2 °F 44.6 °F 87% 30.09 in 4.3 mi South 9.2 mph - N/A Rain Light Rain
3:00 AM 48 °F 46 °F 89% 30.11 in 2 mi SSW 10.4 mph - - Rain Rain
3:00 AM 48.2 °F 46.4 °F 93% 30.09 in 1.9 mi SSW 10.4 mph - N/A Rain Rain
3:30 AM 48.2 °F 46.4 °F 93% 30.06 in 2.2 mi SSW 8.1 mph - N/A Rain Rain
4:00 AM 48 °F 47 °F 94% 30.09 in - SSW 10.4 mph - -  
4:00 AM 48.2 °F 46.4 °F 93% 30.06 in 5.0 mi SSW 10.4 mph - N/A Rain Light Rain
4:30 AM 48.2 °F 46.4 °F 93% 30.06 in 6.2 mi SSW 6.9 mph - N/A   Mostly Cloudy
5:00 AM 48.2 °F 46.4 °F 93% 30.06 in 6.2 mi SSW 5.8 mph - N/A   Mostly Cloudy
5:29 AM 48.2 °F 46.4 °F 93% 30.06 in 6.2 mi SSW 8.1 mph - N/A   Mostly Cloudy
5:30 AM 48.2 °F 46.4 °F 93% 30.06 in 6.2 mi SSW 8.1 mph - N/A   Mostly Cloudy
6:00 AM 49 °F 46 °F 85% 30.09 in 16 mi SSW 8.1 mph - -   Mostly Cloudy
6:00 AM 48.2 °F 46.4 °F 93% 30.06 in 6.2 mi SSW 8.1 mph - N/A   Mostly Cloudy
6:30 AM 48.2 °F 46.4 °F 93% 30.06 in 6.2 mi South 8.1 mph - N/A   Mostly Cloudy
7:00 AM 49 °F 46 °F 87% 30.09 in - South 6.9 mph - -  
7:00 AM 48.2 °F 46.4 °F 93% 30.06 in 6.2 mi South 6.9 mph - N/A   Mostly Cloudy
7:30 AM 48.2 °F 46.4 °F 93% 30.06 in 6.2 mi SSE 10.4 mph - N/A   Mostly Cloudy
8:00 AM 50.0 °F 46.4 °F 87% 30.06 in 6.2 mi South 8.1 mph - N/A   Mostly Cloudy
8:30 AM 50.0 °F 46.4 °F 87% 30.09 in 6.2 mi South 6.9 mph - N/A   Mostly Cloudy
9:00 AM 50 °F 47 °F 84% 30.09 in 12 mi South 10.4 mph - - Rain Light Rain Showers
9:00 AM 50.0 °F 46.4 °F 87% 30.06 in 6.2 mi South 10.4 mph - N/A   Mostly Cloudy
9:30 AM 50.0 °F 46.4 °F 87% 30.06 in 6.2 mi South 8.1 mph - N/A   Mostly Cloudy
10:00 AM 52 °F 46 °F 74% 30.09 in - SSE 10.4 mph - -  
10:00 AM 51.8 °F 46.4 °F 82% 30.06 in 6.2 mi SSE 10.4 mph - N/A   Mostly Cloudy
10:30 AM 51.8 °F 46.4 °F 82% 30.06 in 6.2 mi SSE 12.7 mph - N/A   Mostly Cloudy
11:00 AM 51.8 °F 46.4 °F 82% 30.06 in 6.2 mi SSE 12.7 mph - N/A   Mostly Cloudy
11:30 AM 51.8 °F 46.4 °F 82% 30.06 in 6.2 mi South 11.5 mph - N/A   Mostly Cloudy
12:00 PM 53 °F 46 °F 68% 30.07 in 16 mi SSE 13.8 mph - -   Mostly Cloudy
12:00 PM 53.6 °F 46.4 °F 77% 30.06 in 6.2 mi SSE 13.8 mph - N/A   Mostly Cloudy
12:30 PM 51.8 °F 44.6 °F 76% 30.04 in 6.2 mi South 9.2 mph - N/A   Mostly Cloudy
1:00 PM 51 °F 47 °F 81% 30.06 in - SE 10.4 mph - -  
1:00 PM 51.8 °F 46.4 °F 82% 30.04 in 6.2 mi SE 10.4 mph - N/A   Mostly Cloudy
1:30 PM 51.8 °F 46.4 °F 82% 30.04 in 6.2 mi SSE 10.4 mph - N/A   Mostly Cloudy
2:00 PM 53.6 °F 44.6 °F 72% 30.04 in 6.2 mi SSE 13.8 mph - N/A   Mostly Cloudy
2:30 PM 53.6 °F 46.4 °F 77% 30.04 in 6.2 mi South 12.7 mph - N/A   Mostly Cloudy
3:00 PM 52 °F 44 °F 67% 30.05 in 12 mi SE 13.8 mph - - Rain Light Rain Showers
3:00 PM 51.8 °F 44.6 °F 76% 30.04 in 5.6 mi SE 13.8 mph - N/A Rain Light Rain Showers
3:30 PM 51.8 °F 41.0 °F 67% 30.04 in 6.2 mi SSE 17.3 mph - N/A   Mostly Cloudy
4:00 PM 51 °F 42 °F 64% 30.06 in - SSE 10.4 mph - -  
4:00 PM 51.8 °F 42.8 °F 71% 30.04 in 5.0 mi SSE 10.4 mph - N/A   Light Drizzle
4:30 PM 51.8 °F 42.8 °F 71% 30.04 in 6.2 mi SE 8.1 mph - N/A   Mostly Cloudy
5:00 PM 50.0 °F 44.6 °F 82% 30.04 in 6.2 mi SSE 8.1 mph - N/A   Mostly Cloudy
5:30 PM 51.8 °F 44.6 °F 76% 30.04 in 6.2 mi SSE 9.2 mph - N/A   Mostly Cloudy
6:00 PM 50 °F 46 °F 80% 30.07 in 12 mi South 11.5 mph - - Rain Light Drizzle
6:00 PM 50.0 °F 46.4 °F 87% 30.06 in 6.2 mi South 11.5 mph - N/A   Light Drizzle
6:30 PM 50.0 °F 46.4 °F 87% 30.06 in 6.2 mi South 12.7 mph - N/A   Mostly Cloudy
6:56 PM 50.0 °F 46.4 °F 87% 30.06 in 3.7 mi South 13.8 mph - N/A Rain Light Rain Showers
7:00 PM 50 °F 47 °F 84% 30.08 in - South 15.0 mph - -  
7:00 PM 50.0 °F 46.4 °F 87% 30.06 in 5.0 mi South 15.0 mph - N/A Rain Light Rain Showers
7:15 PM 50.0 °F 46.4 °F 87% 30.06 in 3.1 mi South 11.5 mph - N/A Rain Rain Showers
7:30 PM 50.0 °F 46.4 °F 87% 30.06 in 6.2 mi SSE 11.5 mph - N/A Rain Light Rain Showers
8:00 PM 50.0 °F 46.4 °F 87% 30.09 in 6.2 mi SSE 8.1 mph - N/A   Mostly Cloudy
8:30 PM 48.2 °F 46.4 °F 93% 30.09 in 6.2 mi South 4.6 mph - N/A   Mostly Cloudy
8:55 PM 50.0 °F 44.6 °F 82% 30.09 in 6.2 mi South 16.1 mph - N/A Rain Light Rain Showers
9:00 PM 49 °F 44 °F 79% 30.10 in 12 mi SSE 15.0 mph - - Rain Light Rain Showers
9:00 PM 50.0 °F 44.6 °F 82% 30.09 in 5.6 mi SSE 15.0 mph - N/A Rain Light Rain Showers
9:30 PM 50.0 °F 44.6 °F 82% 30.09 in 6.2 mi South 12.7 mph - N/A Rain Light Rain Showers
10:00 PM 50 °F 43 °F 70% 30.10 in - SSE 17.3 mph - -  
10:00 PM 50.0 °F 42.8 °F 76% 30.09 in 6.2 mi SSE 17.3 mph - N/A   Mostly Cloudy
10:30 PM 50.0 °F 42.8 °F 76% 30.09 in 6.2 mi South 12.7 mph - N/A   Mostly Cloudy
11:00 PM 48.2 °F 44.6 °F 87% 30.09 in 6.2 mi South 8.1 mph - N/A   Mostly Cloudy
11:11 PM 50.0 °F 42.8 °F 76% 30.09 in 6.2 mi SSE 17.3 mph - N/A   Mostly Cloudy
11:30 PM 50.0 °F 42.8 °F 76% 30.09 in 6.2 mi SSE 12.7 mph - N/A   Mostly Cloudy